Moses Lake, WA
on Saturday, February 2, 2013

Saturday
Previous Day Next Day
Daily Summary
 ActualAverageRecord
Temperature
Mean Temperature °F 33°F  
Max Temperature 47°F 39°F 54°F (2005)
Min Temperature 24°F 26°F -3°F (1985)
Degree Days
Heating Degree Days 29 32  
Month to date heating degree days 58 65  
Since 1 July heating degree days 3412 3739  
Cooling Degree Days 0 0  
Month to date cooling degree days 0 0  
Year to date cooling degree days 0 0  
Moisture
Dew Point 26°F   
Average Humidity 76    
Maximum Humidity 92    
Minimum Humidity 60    
Precipitation
Precipitation 0.00 in 0.04 in 0.24 in (1986)
Month to date precipitation 0.00 0.07  
Year to date precipitation 0.28 1.21  
Wind
Wind Speed 7 mph   
Max Wind Speed 12 mph   
Max Gust Speed 14 mph   
Visibility 10 miles   
Events     

Key: T is trace of precipitation, MM is missing value
Source: NWS Daily Summary
Time(PST)TemperatureDew PointHumidity Pressure Visibility Wind DirectionWind SpeedGust SpeedPrecipitationEvents Conditions
12:52 AM 27.0°F 23.0°F 85% 30.49 in 10.0 miles North 6.9 mph - N/A   Clear
1:52 AM 26.1°F 23.0°F 88% 30.49 in 10.0 miles North 5.8 mph - N/A   Clear
2:52 AM 26.1°F 21.9°F 84% 30.50 in 10.0 miles North 6.9 mph - N/A   Clear
3:52 AM 25.0°F 21.0°F 85% 30.49 in 10.0 miles North 5.8 mph - N/A   Clear
4:52 AM 25.0°F 21.0°F 85% 30.50 in 10.0 miles North 6.9 mph - N/A   Clear
5:52 AM 24.1°F 19.9°F 84% 30.49 in 10.0 miles North 6.9 mph - N/A   Clear
6:52 AM 24.1°F 19.9°F 84% 30.50 in 10.0 miles North 8.1 mph - N/A   Clear
7:52 AM 25.0°F 21.0°F 85% 30.50 in 10.0 miles North 8.1 mph - N/A   Clear
8:52 AM 28.0°F 24.1°F 85% 30.52 in 10.0 miles NNW 11.5 mph - N/A   Clear
9:52 AM 34.0°F 27.0°F 75% 30.51 in 10.0 miles North 10.4 mph - N/A   Clear
10:52 AM 37.9°F 28.9°F 70% 30.51 in 10.0 miles North 6.9 mph - N/A   Clear
11:52 AM 41.0°F 30.9°F 67% 30.48 in 10.0 miles North 6.9 mph - N/A   Clear
12:52 PM 43.0°F 32.0°F 65% 30.45 in 10.0 miles North 8.1 mph - N/A   Clear
1:52 PM 46.0°F 33.1°F 61% 30.42 in 10.0 miles Variable 4.6 mph - N/A   Clear
2:52 PM 45.0°F 34.0°F 65% 30.40 in 10.0 miles NNW 8.1 mph - N/A   Clear
3:52 PM 44.1°F 33.1°F 65% 30.39 in 10.0 miles North 6.9 mph - N/A   Clear
4:52 PM 37.0°F 30.9°F 79% 30.38 in 10.0 miles NNW 9.2 mph - N/A   Clear
5:52 PM 33.8°F 30.2°F 87% 30.33 in 10.0 miles North 8.1 mph - N/A   Clear
6:52 PM 32.0°F 28.9°F 88% 30.37 in 10.0 miles North 8.1 mph - N/A   Clear
7:52 PM 30.9°F 27.0°F 85% 30.34 in 10.0 miles North 8.1 mph - N/A   Clear
8:52 PM 28.9°F 27.0°F 92% 30.33 in 10.0 miles North 5.8 mph - N/A   Clear
9:52 PM 28.9°F 26.1°F 89% 30.32 in 10.0 miles North 6.9 mph - N/A   Clear
10:52 PM 27.0°F 25.0°F 92% 30.30 in 10.0 miles North 4.6 mph - N/A   Clear
11:52 PM 26.1°F 23.0°F 88% 30.30 in 10.0 miles North 5.8 mph - N/A   Clear
Moon Phase
Feb. 02 Feb. 03 Feb. 10 Feb. 17 Feb. 25
Sunrise:07:20 AM (PST) Moon Rise:No Moon Rise/
Sunset:05:01 PM (PST) Moon Set:10:03 AM (PST)

Copyright © 2014 The Weather Underground, Inc.